RADUGA-1 2 [-]

Last updated on July 6, 2021, 3:35 p.m. UTC

1 21038U 90116A   21186.90604995 -.00000321  00000-0  00000-0 0  9998
2 21038  14.4399 351.8136 0009766  80.2025 278.4922  1.00285441 29211
UTC
Height (km)
Latitude
Longitude
Inclination
Orbital Period
UTC large
Height (km)
Speed (km/s)
/
Latitude / Longitude
Inclination (degrees)
Orbital Period (minutes)
Azimuth
Elevation
Range (km)
Doppler Factor
iOS Compass Heading
iOS Angle